• In Germany
  • List of Countries
  • For 7 days
  • Water Temperature
  • Satellite Maps
  • Weather Map
  • Weather Widgets
  • user-avatar
    Login

    Hourly Weather Koło

    Today, 21 October, Saturday

    Time Temperature Precipitation Wind Pressure Humidity
    00:00 +12°C° 0 mm 3 mps 753 mmHg 80%
    01:00 +13°C° 0 mm 2 mps 753 mmHg 82%
    02:00 +13°C° 0.1 mm 2 mps 752 mmHg 81%
    03:00 +12°C° 0.1 mm 3 mps 752 mmHg 81%
    04:00 +12°C° 0.1 mm 3 mps 752 mmHg 80%
    05:00 +11°C° 0 mm 3 mps 752 mmHg 83%
    06:00 +11°C° 0 mm 3 mps 752 mmHg 86%
    07:00 +10°C° 0 mm 3 mps 752 mmHg 89%
    08:00 +11°C° 0 mm 3 mps 752 mmHg 86%
    09:00 +12°C° 0 mm 3 mps 753 mmHg 83%
    10:00 +13°C° 0 mm 4 mps 753 mmHg 80%
    11:00 +14°C° 0.1 mm 4 mps 753 mmHg 75%
    12:00 +14°C° 0.1 mm 4 mps 752 mmHg 71%
    13:00 +15°C° 0.1 mm 4 mps 752 mmHg 67%
    14:00 +15°C° 0.1 mm 4 mps 752 mmHg 69%
    15:00 +14°C° 0.1 mm 3 mps 752 mmHg 71%
    16:00 +14°C° 0.1 mm 3 mps 752 mmHg 72%
    17:00 +14°C° 0 mm 2 mps 753 mmHg 76%
    18:00 +13°C° 0 mm 2 mps 753 mmHg 79%
    19:00 +12°C° 0 mm 1 mps 753 mmHg 83%
    20:00 +12°C° 0 mm 1 mps 754 mmHg 85%
    21:00 +12°C° 0 mm 1 mps 754 mmHg 86%
    22:00 +10°C° 0 mm 0 mps 754 mmHg 88%
    23:00 +11°C° 0 mm 1 mps 754 mmHg 89%

    Tomorrow, 22 October, Sunday

    Time Temperature Precipitation Wind Pressure Humidity
    00:00 +11°C° 0 mm 1 mps 754 mmHg 89%
    01:00 +11°C° 0 mm 1 mps 754 mmHg 90%
    02:00 +10°C° 0 mm 2 mps 753 mmHg 91%
    03:00 +9°C° 0 mm 2 mps 753 mmHg 92%
    04:00 +9°C° 0 mm 2 mps 753 mmHg 93%
    05:00 +9°C° 0 mm 3 mps 753 mmHg 93%
    06:00 +9°C° 0 mm 3 mps 752 mmHg 92%
    07:00 +9°C° 0 mm 3 mps 752 mmHg 92%
    08:00 +10°C° 0.2 mm 3 mps 752 mmHg 90%
    09:00 +11°C° 0.2 mm 3 mps 752 mmHg 87%
    10:00 +11°C° 0.2 mm 4 mps 752 mmHg 84%
    11:00 +11°C° 0.9 mm 3 mps 752 mmHg 85%
    12:00 +11°C° 0.9 mm 3 mps 752 mmHg 86%
    13:00 +11°C° 0.9 mm 3 mps 752 mmHg 87%
    14:00 +11°C° 0.8 mm 3 mps 752 mmHg 88%
    15:00 +12°C° 0.8 mm 2 mps 752 mmHg 90%
    16:00 +10°C° 0.8 mm 2 mps 752 mmHg 91%
    17:00 +10°C° 0.1 mm 2 mps 752 mmHg 92%
    18:00 +10°C° 0.1 mm 2 mps 752 mmHg 93%
    19:00 +10°C° 0.1 mm 2 mps 752 mmHg 93%
    20:00 +10°C° 0.1 mm 2 mps 752 mmHg 94%
    21:00 +10°C° 0.1 mm 2 mps 752 mmHg 94%
    22:00 +10°C° 0.1 mm 2 mps 752 mmHg 94%
    23:00 +10°C° 0 mm 2 mps 752 mmHg 93%

    Day after tomorrow, 23 October, Monday

    Time Temperature Precipitation Wind Pressure Humidity
    00:00 +9°C° 0 mm 2 mps 752 mmHg 93%
    01:00 +9°C° 0 mm 2 mps 752 mmHg 93%
    02:00 +9°C° 0 mm 2 mps 752 mmHg 92%
    03:00 +9°C° 0 mm 2 mps 752 mmHg 92%
    04:00 +9°C° 0 mm 2 mps 752 mmHg 91%
    05:00 +8°C° 0 mm 2 mps 752 mmHg 91%
    06:00 +8°C° 0 mm 2 mps 752 mmHg 91%
    07:00 +8°C° 0 mm 2 mps 752 mmHg 91%
    08:00 +9°C° 0 mm 2 mps 752 mmHg 88%
    09:00 +9°C° 0 mm 2 mps 752 mmHg 85%
    10:00 +10°C° 0 mm 2 mps 753 mmHg 81%
    11:00 +10°C° 0.1 mm 2 mps 753 mmHg 80%
    12:00 +12°C° 0.1 mm 2 mps 753 mmHg 79%
    13:00 +11°C° 0.1 mm 3 mps 753 mmHg 77%
    14:00 +12°C° 0.1 mm 2 mps 753 mmHg 79%
    15:00 +12°C° 0.1 mm 2 mps 753 mmHg 81%
    16:00 +10°C° 0.1 mm 2 mps 753 mmHg 83%
    17:00 +10°C° 0.3 mm 2 mps 754 mmHg 85%
    18:00 +10°C° 0.3 mm 2 mps 754 mmHg 87%
    19:00 +9°C° 0.3 mm 2 mps 754 mmHg 90%
    20:00 +9°C° 0.3 mm 2 mps 755 mmHg 90%
    21:00 +9°C° 0.3 mm 2 mps 755 mmHg 91%
    22:00 +8°C° 0.3 mm 2 mps 756 mmHg 91%
    23:00 +8°C° 0.1 mm 2 mps 756 mmHg 91%

    24 October, Tuesday

    Time Temperature Precipitation Wind Pressure Humidity
    00:00 +8°C° 0.1 mm 3 mps 757 mmHg 90%
    01:00 +8°C° 0.1 mm 3 mps 757 mmHg 90%
    02:00 +8°C° 0 mm 3 mps 757 mmHg 89%
    03:00 +8°C° 0 mm 3 mps 758 mmHg 88%
    04:00 +7°C° 0 mm 3 mps 758 mmHg 87%
    05:00 +7°C° 0 mm 3 mps 759 mmHg 87%
    06:00 +5°C° 0 mm 3 mps 759 mmHg 88%
    07:00 +6°C° 0 mm 2 mps 760 mmHg 88%
    08:00 +5°C° 0 mm 3 mps 760 mmHg 83%
    09:00 +7°C° 0 mm 3 mps 761 mmHg 78%
    10:00 +8°C° 0 mm 3 mps 761 mmHg 73%
    11:00 +8°C° 0 mm 3 mps 761 mmHg 70%
    12:00 +9°C° 0 mm 2 mps 762 mmHg 67%
    13:00 +9°C° 0 mm 2 mps 762 mmHg 64%
    14:00 +9°C° 0 mm 2 mps 762 mmHg 65%
    15:00 +9°C° 0 mm 2 mps 762 mmHg 67%
    16:00 +9°C° 0 mm 2 mps 763 mmHg 68%
    17:00 +8°C° 0 mm 2 mps 763 mmHg 70%
    18:00 +7°C° 0 mm 2 mps 763 mmHg 72%
    19:00 +7°C° 0 mm 2 mps 763 mmHg 74%
    20:00 +6°C° 0 mm 2 mps 764 mmHg 75%
    21:00 +6°C° 0 mm 2 mps 764 mmHg 76%
    22:00 +5°C° 0 mm 2 mps 764 mmHg 77%
    23:00 +5°C° 0 mm 2 mps 764 mmHg 77%

    25 October, Wednesday

    Time Temperature Precipitation Wind Pressure Humidity
    00:00 +5°C° 0 mm 2 mps 764 mmHg 78%
    01:00 +4°C° 0 mm 2 mps 765 mmHg 79%
    02:00 +4°C° 0 mm 2 mps 765 mmHg 79%
    03:00 +4°C° 0 mm 2 mps 765 mmHg 79%
    04:00 +3°C° 0 mm 2 mps 765 mmHg 79%
    05:00 +3°C° 0 mm 2 mps 765 mmHg 80%
    06:00 +3°C° 0 mm 2 mps 765 mmHg 80%
    07:00 +2°C° 0 mm 3 mps 765 mmHg 80%
    08:00 +3°C° 0 mm 3 mps 765 mmHg 74%
    09:00 +4°C° 0 mm 3 mps 765 mmHg 67%
    10:00 +5°C° 0 mm 4 mps 766 mmHg 61%
    11:00 +6°C° 0 mm 4 mps 765 mmHg 57%
    12:00 +7°C° 0 mm 4 mps 765 mmHg 53%
    13:00 +8°C° 0 mm 4 mps 764 mmHg 49%
    14:00 +7°C° 0 mm 4 mps 764 mmHg 51%
    15:00 +8°C° 0 mm 3 mps 764 mmHg 54%
    16:00 +7°C° 0 mm 3 mps 764 mmHg 56%
    17:00 +7°C° 0 mm 3 mps 764 mmHg 55%
    18:00 +6°C° 0 mm 4 mps 764 mmHg 55%
    19:00 +6°C° 0 mm 4 mps 764 mmHg 55%
    20:00 +6°C° 0 mm 4 mps 764 mmHg 54%
    21:00 +6°C° 0 mm 5 mps 764 mmHg 53%
    22:00 +6°C° 0 mm 5 mps 764 mmHg 53%
    23:00 +6°C° 0 mm 5 mps 763 mmHg 53%

    26 October, Thursday

    Time Temperature Precipitation Wind Pressure Humidity
    00:00 +6°C° 0 mm 5 mps 763 mmHg 53%
    01:00 +6°C° 0 mm 4 mps 763 mmHg 53%
    02:00 +6°C° 0 mm 4 mps 762 mmHg 54%
    03:00 +6°C° 0 mm 4 mps 762 mmHg 55%
    04:00 +6°C° 0 mm 4 mps 762 mmHg 55%
    05:00 +6°C° 0 mm 4 mps 762 mmHg 58%
    06:00 +6°C° 0 mm 4 mps 761 mmHg 61%
    07:00 +6°C° 0 mm 4 mps 761 mmHg 64%
    08:00 +7°C° 0 mm 4 mps 761 mmHg 68%
    09:00 +8°C° 0 mm 4 mps 761 mmHg 73%
    10:00 +10°C° 0 mm 4 mps 761 mmHg 77%
    11:00 +11°C° 0 mm 4 mps 761 mmHg 79%
    12:00 +12°C° 0 mm 4 mps 760 mmHg 80%
    13:00 +13°C° 0 mm 4 mps 760 mmHg 82%
    14:00 +13°C° 0 mm 4 mps 760 mmHg 84%
    15:00 +13°C° 0 mm 4 mps 759 mmHg 86%
    16:00 +13°C° 0 mm 3 mps 759 mmHg 88%
    17:00 +13°C° 0.2 mm 3 mps 759 mmHg 89%
    18:00 +12°C° 0.2 mm 3 mps 759 mmHg 90%
    19:00 +12°C° 0.2 mm 3 mps 758 mmHg 91%
    20:00 +12°C° 0.4 mm 3 mps 758 mmHg 92%
    21:00 +12°C° 0.4 mm 4 mps 757 mmHg 92%
    22:00 +12°C° 0.4 mm 4 mps 757 mmHg 92%
    23:00 +12°C° 0.1 mm 4 mps 756 mmHg 92%
    Show more